Weather History for Fargo, ND

Change the Weather History Date:

Wednesday, January 4, 2012

  Actual Average Record
Temperature  
Mean Temperature 30 °F 10 °F  
Max Temperature 41 °F 18 °F 41 °F (2001)
Min Temperature 18 °F 1 °F -43 °F (1884)
Degree Days  
Heating Degree Days 35 55  
Month to date heating degree days 175 220  
Since 1 July heating degree days 2945 3760  
Cooling Degree Days 0 0  
Month to date cooling degree days 0 0  
Year to date cooling degree days 0 0  
Moisture  
Dew Point 22 °F    
Average Humidity 76    
Maximum Humidity 88    
Minimum Humidity 64    
Precipitation  
Precipitation 0.00 in 0.02 in 0.91 in (1997)
Month to date precipitation T 0.10  
Year to date precipitation T 0.10  
Snow  
Snow 0.00 in 0.40 in 10.70 in (1997)
Month to date snowfall T 1.6  
Since 1 July snowfall 3.9 21.4  
Snow Depth 2.00 in    
Sea Level Pressure  
Sea Level Pressure 30.02 in    
Wind  
Wind Speed 7 mph (SW)    
Max Wind Speed 16 mph    
Max Gust Speed 18 mph    
Visibility 10 miles    
Events      
T = Trace of Precipitation, MM = Missing Value Source: NWS Daily Summary

Daily Weather History Graph

Daily Weather History Graph

Search for Another Location

Airport:

Trip Planner

Search our weather history database for the weather conditions in past years. The results will help you decide how hot, cold, wet, or windy it might be!

Date:

Astronomy

Jan. 04, 2012 Rise Set
Actual Time 8:12 AM CST 4:51 PM CST
Civil Twilight 7:37 AM CST 5:26 PM CST
Nautical Twilight 6:59 AM CST 6:05 PM CST
Astronomical Twilight 6:22 AM CST 6:42 PM CST
Moon 1:17 PM CST (1/4) 3:59 AM CST (1/4)
Length of Visible Light 9h 49m
Length of Day
8h 39m
Waxing Gibbous, 81% of the Moon is Illuminated
Jan 4
Waxing Gibbous
Jan 9
Full
Jan 16
Last Quarter
Jan 23
New
Jan 30
First Quarter

Hourly Weather History & Observations

Time (CST) Temp. Windchill Dew Point Humidity Pressure Visibility Wind Dir Wind Speed Gust Speed Precip Events Conditions
12:53 AM 28.0 °F 19.3 °F 21.9 °F 78% 30.05 in 10.0 mi NW 9.2 mph - N/A   Clear
1:53 AM 25.0 °F 15.5 °F 19.9 °F 81% 30.08 in 10.0 mi WNW 9.2 mph - N/A   Clear
2:53 AM 21.0 °F 13.4 °F 17.1 °F 85% 30.09 in 10.0 mi West 5.8 mph - N/A   Clear
3:53 AM 21.9 °F 15.7 °F 17.1 °F 82% 30.09 in 10.0 mi WSW 4.6 mph - N/A   Clear
4:53 AM 19.0 °F 11.1 °F 15.1 °F 85% 30.10 in 10.0 mi WSW 5.8 mph - N/A   Clear
5:53 AM 21.0 °F 14.6 °F 16.0 °F 81% 30.11 in 10.0 mi WSW 4.6 mph - N/A   Clear
6:53 AM 19.9 °F 10.1 °F 16.0 °F 85% 30.08 in 10.0 mi South 8.1 mph - N/A   Clear
7:53 AM 23.0 °F 14.7 °F 19.0 °F 85% 30.07 in 10.0 mi South 6.9 mph - N/A   Clear
8:53 AM 26.1 °F 16.8 °F 21.0 °F 81% 30.03 in 10.0 mi South 9.2 mph - N/A   Clear
9:53 AM 25.0 °F 16.3 °F 19.9 °F 81% 30.03 in 10.0 mi ESE 8.1 mph - N/A   Clear
10:53 AM 28.9 °F 21.1 °F 21.0 °F 72% 30.02 in 10.0 mi SSE 8.1 mph - N/A   Clear
11:53 AM 33.1 °F 24.9 °F 24.1 °F 70% 29.99 in 10.0 mi South 10.4 mph - N/A   Clear
12:53 PM 36.0 °F 29.0 °F 26.1 °F 67% 29.97 in 10.0 mi SSW 9.2 mph - N/A   Clear
1:53 PM 39.0 °F 32.3 °F 28.0 °F 65% 29.92 in 10.0 mi SW 10.4 mph - N/A   Clear
2:53 PM 41.0 °F 38.0 °F 30.0 °F 65% 29.94 in 10.0 mi WSW 4.6 mph - N/A   Clear
3:53 PM 37.9 °F 32.7 °F 28.9 °F 70% 29.99 in 10.0 mi West 6.9 mph - N/A   Clear
4:53 PM 35.1 °F 30.1 °F 28.0 °F 76% 29.99 in 10.0 mi West 5.8 mph - N/A   Clear
5:53 PM 32.0 °F 27.5 °F 26.1 °F 79% 29.99 in 10.0 mi West 4.6 mph - N/A   Clear
6:53 PM 30.0 °F 23.2 °F 25.0 °F 82% 30.00 in 10.0 mi West 6.9 mph - N/A   Clear
7:53 PM 28.0 °F 21.7 °F 24.1 °F 85% 29.98 in 10.0 mi SW 5.8 mph - N/A   Clear
8:53 PM 28.0 °F 20.8 °F 24.1 °F 85% 29.99 in 10.0 mi WSW 6.9 mph - N/A   Clear
9:53 PM 26.1 °F 21.9 °F 21.9 °F 84% 29.98 in 10.0 mi SW 3.5 mph - N/A   Clear
10:53 PM 25.0 °F 20.7 °F 21.0 °F 85% 29.98 in 10.0 mi SSW 3.5 mph - N/A   Clear
11:53 PM 26.1 °F 19.4 °F 23.0 °F 88% 29.92 in 10.0 mi South 5.8 mph - N/A   Clear